Location: Handeloh
(53.2500°N, 9.8330°E)
Time: 01:01:56
(UTC+01:00)

S-56A Canister/Altair - Pass Details

Date: 18 November 2019
Orbit: 633 x 2500 km, 38.9° (Epoch: 08 December)

Event Time Altitude Azimuth Distance (km) Brightness Sun altitude
Rises 16:56:59 0° 212° (SSW) 5,153 12.8 -5.6°
Reaches altitude 10° 17:02:13 10° 196° (SSW) 3,758 11.7 -6.3°
Maximum altitude 17:07:31 17° 161° (SSE) 2,825 10.5 -7.0°
Drops below altitude 10° 17:11:51 10° 124° (ESE) 2,946 10.2 -7.6°
Enters shadow 17:14:43 - 106° (ESE) 3,495 10.4 -8.0°
Sets 17:15:13 0° 103° (ESE) 3,618 - -8.1°
